ONEWEB-0709, 55172

Orbit data source: Space-Track

ONEWEB-0709, 55172 is a payload satellite owned by One Web (NAA) (UK) in LEO that was launched on Tue, 10 Jan 2023 UTC via an FALCON 9 launch vehicle from the Air Force Eastern Test Range (AFETR). Payload-class satellites include a variety of spacecraft equipped with specific instruments for various scientific and technological missions. These include communications satellites like Starlink; space stations such as the ISS; scientific satellites like the Hubble; Earth observation satellites from companies like Planet Labs, Umbra, and HawkEye 360; GPS; miniature CubeSats for education and research; and military/defense satellites.

Loading next visibility...
Identifier
55172, 2023-004AJ
Orbit
LEO
Country
Flag of UKUK
Related business
Manufacturer
One Web
Mission
Operational Commercial Communications
Bus & Motor
ARROW, Unknown motor
Mass
148 kg wet, ~140 kg dry
Launch date (UTC)
2023-01-10 (3 years ago)
Launch vehicle
FALCON 9
Launch site
Air Force Eastern Test Range (AFETR)
Object type
Payload
Rocket body
Debris
Shape & HBR
Trap Box + 2 Pan, 6.7 m
Radar Cross Section
3.464 m², Large (>1 m²)

Expand to show TLE details & history
Last TLE update: 2 days ago

TLE from 2 days ago
0 ONEWEB-0709
1 55172U 23004AJ  26171.33251500  .00000397  00000-0  10845-2 0  9994
2 55172  87.8884  20.4530 0001931 113.7365 246.3966 13.11417579166287
Epoch: 2026-06-20T07:58Z
TLE epoch observation values (Epoch: 2026-06-20T07:58:49.295Z)
Latitude
-0.00001°
Longitude
-7.80105°
Altitude
1,221.157 km
Speed
7.244 km/s
True Right ascension
01h 21m 48s
True Declination
0° 00' 00"
Sunlit
Object was in daylight at epoch
Visualization orbit readout
Latitude
Unknown
Longitude
Unknown
Altitude
Unknown
Speed
Unknown
Apparent Right ascension
Unknown
Apparent Declination
Unknown
Sunlit
N/A
Visualization observer readout
Local Sidereal Time
21:29:26
Azimuth
Unknown
Elevation
Unknown
Doppler factor
Unknown
Orbital elements
Apogee altitude
1,216.265 km
Perigee altitude
1,213.332 km
Semi-major axis
7,592.935 km
Eccentricity
0.00019
Inclination
87.8884°
RAAN
20.453°
Arg. of periapsis
113.7365°
True anomaly
246.37633°
Mean anomaly
246.3966°
Eccentric anomaly
246.38646°
Mean motion
3.28041 °/min
Orbital period
109.74 mins
BSTAR
0.0010845
Loading maneuver chart data...
Computing Atmospheric mass density...
Loading historical data...
Loading historical data...
Loading historical data...
Loading historical data...
Loading historical data...
Loading historical data...
Loading historical data...

Documentation

Showing up to 5 results
|